Back to catalog

SL-8 DEB

AliveLEO
NORAD 14811·DEBRIS·🇷🇺 Russia

Launched Apr 28, 1982 from Plesetsk Cosmodrome

Loading…

Next Passes (next 24 hours)

TLE

FreshSource: Space-Track

Epoch: Sep 14, 2026, 12:02 UTC

1 14811U 82037D   26257.50204765  .00000816  00000-0  21384-3 0  9992
2 14811  74.0230  78.5890 0016278  70.7541 321.1103 14.50807354319414

Track SL-8 DEB in real time with AllMySat

Download on the App Store